• In Österreich
  • Länderverzeichnis
  • Für 7 Tage
  • Wassertemperatur
  • Satellitenkarten
  • Wetterkarte
  • News
  • Widgets
  • user-avatar
    Anmelden

    Stündliche Wetter Durres

    Heute, 20 Oktober, Samstag

    Zeit Temperatur Niederschläge Wind Luftdruck Luftfeuchtigkeit
    00:00 +19°C° 0 mm 2 m/S 761 mmHg 65%
    01:00 +19°C° 0 mm 2 m/S 761 mmHg 65%
    02:00 +19°C° 0 mm 2 m/S 761 mmHg 67%
    03:00 +18°C° 0 mm 2 m/S 761 mmHg 68%
    04:00 +18°C° 0 mm 2 m/S 762 mmHg 70%
    05:00 +18°C° 0 mm 2 m/S 762 mmHg 69%
    06:00 +19°C° 0 mm 2 m/S 762 mmHg 68%
    07:00 +19°C° 0 mm 2 m/S 762 mmHg 67%
    08:00 +21°C° 0 mm 2 m/S 762 mmHg 59%
    09:00 +24°C° 0 mm 2 m/S 762 mmHg 51%
    10:00 +26°C° 0 mm 2 m/S 762 mmHg 43%
    11:00 +27°C° 0 mm 3 m/S 762 mmHg 40%
    12:00 +28°C° 0 mm 3 m/S 762 mmHg 38%
    13:00 +28°C° 0 mm 4 m/S 762 mmHg 35%
    14:00 +27°C° 0 mm 4 m/S 762 mmHg 37%
    15:00 +27°C° 0 mm 5 m/S 762 mmHg 38%
    16:00 +26°C° 0 mm 5 m/S 762 mmHg 40%
    17:00 +23°C° 0 mm 5 m/S 762 mmHg 46%
    18:00 +21°C° 0 mm 5 m/S 762 mmHg 52%
    19:00 +19°C° 0 mm 5 m/S 762 mmHg 57%
    20:00 +19°C° 0 mm 5 m/S 762 mmHg 59%
    21:00 +17°C° 0 mm 5 m/S 762 mmHg 61%
    22:00 +18°C° 0 mm 4 m/S 763 mmHg 62%
    23:00 +18°C° 0 mm 4 m/S 763 mmHg 63%

    Morgen, 21 Oktober, Sonntag

    Zeit Temperatur Niederschläge Wind Luftdruck Luftfeuchtigkeit
    00:00 +17°C° 0 mm 4 m/S 762 mmHg 64%
    01:00 +17°C° 0 mm 4 m/S 762 mmHg 65%
    02:00 +17°C° 0 mm 4 m/S 762 mmHg 66%
    03:00 +15°C° 0 mm 4 m/S 762 mmHg 66%
    04:00 +15°C° 0 mm 4 m/S 762 mmHg 66%
    05:00 +16°C° 0 mm 3 m/S 762 mmHg 65%
    06:00 +17°C° 0 mm 3 m/S 762 mmHg 64%
    07:00 +17°C° 0 mm 3 m/S 762 mmHg 63%
    08:00 +19°C° 0 mm 3 m/S 761 mmHg 55%
    09:00 +21°C° 0 mm 3 m/S 761 mmHg 47%
    10:00 +24°C° 0 mm 2 m/S 761 mmHg 40%
    11:00 +25°C° 0 mm 2 m/S 761 mmHg 38%
    12:00 +26°C° 0 mm 2 m/S 760 mmHg 36%
    13:00 +26°C° 0 mm 2 m/S 760 mmHg 34%
    14:00 +25°C° 0 mm 3 m/S 760 mmHg 37%
    15:00 +25°C° 0 mm 3 m/S 760 mmHg 39%
    16:00 +23°C° 0 mm 4 m/S 760 mmHg 42%
    17:00 +22°C° 0 mm 4 m/S 760 mmHg 46%
    18:00 +20°C° 0 mm 4 m/S 760 mmHg 50%
    19:00 +19°C° 0 mm 3 m/S 760 mmHg 55%
    20:00 +18°C° 0 mm 3 m/S 760 mmHg 56%
    21:00 +18°C° 0 mm 3 m/S 760 mmHg 58%
    22:00 +17°C° 0 mm 3 m/S 761 mmHg 60%
    23:00 +17°C° 0 mm 3 m/S 760 mmHg 60%

    übermorgen, 22 Oktober, Montag

    Zeit Temperatur Niederschläge Wind Luftdruck Luftfeuchtigkeit
    00:00 +17°C° 0 mm 4 m/S 760 mmHg 61%
    01:00 +17°C° 0 mm 4 m/S 760 mmHg 61%
    02:00 +17°C° 0.3 mm 4 m/S 760 mmHg 61%
    03:00 +16°C° 0.3 mm 5 m/S 760 mmHg 62%
    04:00 +15°C° 0.3 mm 5 m/S 760 mmHg 62%
    05:00 +16°C° 0.5 mm 5 m/S 760 mmHg 62%
    06:00 +16°C° 0.5 mm 5 m/S 760 mmHg 61%
    07:00 +16°C° 0.5 mm 5 m/S 760 mmHg 61%
    08:00 +17°C° 0.9 mm 6 m/S 760 mmHg 58%
    09:00 +19°C° 0.9 mm 6 m/S 760 mmHg 56%
    10:00 +20°C° 0.9 mm 6 m/S 760 mmHg 53%
    11:00 +20°C° 0.6 mm 6 m/S 759 mmHg 54%
    12:00 +20°C° 0.6 mm 5 m/S 759 mmHg 54%
    13:00 +20°C° 0.6 mm 5 m/S 759 mmHg 54%
    14:00 +20°C° 1.8 mm 5 m/S 758 mmHg 56%
    15:00 +19°C° 1.8 mm 5 m/S 758 mmHg 58%
    16:00 +19°C° 1.8 mm 5 m/S 758 mmHg 60%
    17:00 +17°C° 2 mm 5 m/S 758 mmHg 65%
    18:00 +16°C° 2 mm 6 m/S 758 mmHg 69%
    19:00 +16°C° 2 mm 6 m/S 758 mmHg 74%
    20:00 +16°C° 1.1 mm 6 m/S 758 mmHg 74%
    21:00 +16°C° 1.1 mm 6 m/S 758 mmHg 74%
    22:00 +15°C° 1.1 mm 6 m/S 758 mmHg 74%
    23:00 +15°C° 0.6 mm 6 m/S 758 mmHg 74%

    23 Oktober, Dienstag

    Zeit Temperatur Niederschläge Wind Luftdruck Luftfeuchtigkeit
    00:00 +15°C° 0.6 mm 6 m/S 758 mmHg 75%
    01:00 +15°C° 0.6 mm 6 m/S 757 mmHg 75%
    02:00 +15°C° 0.5 mm 6 m/S 757 mmHg 76%
    03:00 +15°C° 0.5 mm 6 m/S 757 mmHg 77%
    04:00 +15°C° 0.5 mm 6 m/S 756 mmHg 78%
    05:00 +15°C° 1.2 mm 6 m/S 756 mmHg 79%
    06:00 +15°C° 1.2 mm 6 m/S 756 mmHg 80%
    07:00 +15°C° 1.2 mm 6 m/S 757 mmHg 80%
    08:00 +15°C° 0.5 mm 6 m/S 757 mmHg 78%
    09:00 +16°C° 0.5 mm 7 m/S 757 mmHg 76%
    10:00 +16°C° 0.5 mm 7 m/S 757 mmHg 73%
    11:00 +16°C° 0.4 mm 7 m/S 757 mmHg 73%
    12:00 +16°C° 0.4 mm 7 m/S 757 mmHg 73%
    13:00 +16°C° 0.4 mm 7 m/S 757 mmHg 73%
    14:00 +16°C° 0.1 mm 7 m/S 757 mmHg 73%
    15:00 +16°C° 0.1 mm 7 m/S 757 mmHg 73%
    16:00 +16°C° 0.1 mm 7 m/S 757 mmHg 73%
    17:00 +16°C° 0.1 mm 6 m/S 757 mmHg 73%
    18:00 +16°C° 0.1 mm 6 m/S 757 mmHg 74%
    19:00 +15°C° 0.1 mm 6 m/S 757 mmHg 75%
    20:00 +15°C° 0 mm 6 m/S 757 mmHg 75%
    21:00 +15°C° 0 mm 6 m/S 757 mmHg 75%
    22:00 +15°C° 0 mm 6 m/S 757 mmHg 76%
    23:00 +15°C° 0 mm 6 m/S 757 mmHg 76%

    24 Oktober, Mittwoch

    Zeit Temperatur Niederschläge Wind Luftdruck Luftfeuchtigkeit
    00:00 +14°C° 0 mm 5 m/S 757 mmHg 76%
    01:00 +14°C° 0 mm 5 m/S 757 mmHg 76%
    02:00 +14°C° 0 mm 6 m/S 756 mmHg 77%
    03:00 +13°C° 0 mm 6 m/S 756 mmHg 77%
    04:00 +13°C° 0 mm 6 m/S 756 mmHg 77%
    05:00 +13°C° 0 mm 6 m/S 756 mmHg 76%
    06:00 +13°C° 0 mm 6 m/S 756 mmHg 75%
    07:00 +13°C° 0 mm 6 m/S 756 mmHg 74%
    08:00 +15°C° 0 mm 5 m/S 756 mmHg 66%
    09:00 +17°C° 0 mm 5 m/S 755 mmHg 58%
    10:00 +20°C° 0 mm 5 m/S 755 mmHg 49%
    11:00 +21°C° 0 mm 6 m/S 754 mmHg 46%
    12:00 +22°C° 0 mm 6 m/S 754 mmHg 43%
    13:00 +23°C° 0 mm 7 m/S 754 mmHg 40%
    14:00 +22°C° 0 mm 7 m/S 754 mmHg 41%
    15:00 +21°C° 0 mm 8 m/S 754 mmHg 43%
    16:00 +21°C° 0 mm 8 m/S 754 mmHg 45%
    17:00 +18°C° 0 mm 8 m/S 754 mmHg 48%
    18:00 +16°C° 0 mm 9 m/S 755 mmHg 52%
    19:00 +15°C° 0 mm 9 m/S 755 mmHg 56%
    20:00 +13°C° 0 mm 8 m/S 756 mmHg 57%
    21:00 +13°C° 0 mm 8 m/S 756 mmHg 58%
    22:00 +12°C° 0 mm 7 m/S 757 mmHg 59%
    23:00 +12°C° 0 mm 7 m/S 757 mmHg 60%

    25 Oktober, Donnerstag

    Zeit Temperatur Niederschläge Wind Luftdruck Luftfeuchtigkeit
    00:00 +12°C° 0 mm 7 m/S 757 mmHg 62%
    01:00 +11°C° 0 mm 7 m/S 758 mmHg 63%
    02:00 +11°C° 0 mm 7 m/S 758 mmHg 63%
    03:00 +10°C° 0 mm 7 m/S 758 mmHg 64%
    04:00 +10°C° 0 mm 7 m/S 759 mmHg 65%
    05:00 +10°C° 0 mm 7 m/S 759 mmHg 64%
    06:00 +10°C° 0 mm 6 m/S 760 mmHg 62%
    07:00 +10°C° 0 mm 6 m/S 760 mmHg 61%
    08:00 +13°C° 0 mm 6 m/S 760 mmHg 53%
    09:00 +14°C° 0 mm 6 m/S 761 mmHg 46%
    10:00 +16°C° 0 mm 5 m/S 761 mmHg 38%
    11:00 +17°C° 0 mm 6 m/S 761 mmHg 37%
    12:00 +17°C° 0 mm 6 m/S 761 mmHg 37%
    13:00 +19°C° 0 mm 6 m/S 761 mmHg 37%
    14:00 +19°C° 0 mm 6 m/S 761 mmHg 40%
    15:00 +17°C° 0 mm 6 m/S 761 mmHg 43%
    16:00 +16°C° 0 mm 6 m/S 761 mmHg 46%
    17:00 +15°C° 0 mm 5 m/S 762 mmHg 49%
    18:00 +14°C° 0 mm 5 m/S 762 mmHg 52%
    19:00 +13°C° 0 mm 4 m/S 763 mmHg 55%
    20:00 +12°C° 0 mm 4 m/S 763 mmHg 55%
    21:00 +12°C° 0 mm 3 m/S 763 mmHg 55%
    22:00 +12°C° 0 mm 3 m/S 763 mmHg 55%
    23:00 +12°C° 0 mm 3 m/S 764 mmHg 55%
    Mehr zeigen